Satellite: HRBE Catalog number: 37855 Epoch time: 13080.80149471 Element set: 448 Inclination: 101.7191 deg RA of node: 254.5199 deg Eccentricity: 0.0239645 Arg of perigee: 276.9550 deg Mean anomaly: 200.1538 deg Mean motion: 14.82898622 rev/day Decay rate: 3.817e-05 rev/day^2 Epoch rev: 7549 Checksum: 329
Satellite: RS-39 Catalog number: 38051 Epoch time: 13080.88792726 Element set: 275 Inclination: 051.6351 deg RA of node: 271.0983 deg Eccentricity: 0.0011119 Arg of perigee: 307.9742 deg Mean anomaly: 191.6406 deg Mean motion: 15.30057077 rev/day Decay rate: 1.4636e-04 rev/day^2 Epoch rev: 6440 Checksum: 304
Satellite: E-STAR Catalog number: 38079 Epoch time: 13080.29205494 Element set: 980 Inclination: 069.4843 deg RA of node: 031.9297 deg Eccentricity: 0.0656968 Arg of perigee: 252.4372 deg Mean anomaly: 266.8394 deg Mean motion: 14.36901207 rev/day Decay rate: 6.7581e-04 rev/day^2 Epoch rev: 5707 Checksum: 346
Satellite: GOLIAT Catalog number: 38085 Epoch time: 13080.29048889 Element set: 907 Inclination: 069.4885 deg RA of node: 033.4995 deg Eccentricity: 0.0663147 Arg of perigee: 253.1532 deg Mean anomaly: 099.5886 deg Mean motion: 14.35191501 rev/day Decay rate: 2.9718e-04 rev/day^2 Epoch rev: 5703 Checksum: 345
Satellite: HORYU-2 Catalog number: 38340 Epoch time: 13080.95768686 Element set: 429 Inclination: 098.2082 deg RA of node: 027.9122 deg Eccentricity: 0.0012933 Arg of perigee: 164.9728 deg Mean anomaly: 195.1826 deg Mean motion: 14.70695844 rev/day Decay rate: 1.127e-05 rev/day^2 Epoch rev: 4529 Checksum: 329
Satellite: RS-40 Catalog number: 38736 Epoch time: 13080.33578875 Element set: 217 Inclination: 082.4780 deg RA of node: 209.8918 deg Eccentricity: 0.0021322 Arg of perigee: 151.2541 deg Mean anomaly: 208.9719 deg Mean motion: 12.43229668 rev/day Decay rate: 1.0e-07 rev/day^2 Epoch rev: 2933 Checksum: 302
Satellite: PROITERES Catalog number: 38756 Epoch time: 13080.82720832 Element set: 614 Inclination: 098.2586 deg RA of node: 156.2496 deg Eccentricity: 0.0013297 Arg of perigee: 029.8208 deg Mean anomaly: 330.3742 deg Mean motion: 14.74113896 rev/day Decay rate: 7.37e-06 rev/day^2 Epoch rev: 2852 Checksum: 315
Satellite: RAIKO Catalog number: 38852 Epoch time: 13080.55776685 Element set: 170 Inclination: 051.6408 deg RA of node: 176.4358 deg Eccentricity: 0.0015290 Arg of perigee: 027.8841 deg Mean anomaly: 332.2970 deg Mean motion: 15.64303551 rev/day Decay rate: 5.3072e-04 rev/day^2 Epoch rev: 2609 Checksum: 300
Satellite: FITSAT 1 Catalog number: 38853 Epoch time: 13080.48438671 Element set: 171 Inclination: 051.6425 deg RA of node: 175.2156 deg Eccentricity: 0.0012184 Arg of perigee: 033.9564 deg Mean anomaly: 326.2210 deg Mean motion: 15.67484776 rev/day Decay rate: 7.3388e-04 rev/day^2 Epoch rev: 2615 Checksum: 307
Satellite: TechEdSat Catalog number: 38854 Epoch time: 13080.64663430 Element set: 196 Inclination: 051.6370 deg RA of node: 170.2443 deg Eccentricity: 0.0012161 Arg of perigee: 025.6147 deg Mean anomaly: 334.5454 deg Mean motion: 15.77158168 rev/day Decay rate: 1.66582e-03 rev/day^2 Epoch rev: 2623 Checksum: 291
Satellite: F 1 Catalog number: 38855 Epoch time: 13080.11799039 Element set: 193 Inclination: 051.6362 deg RA of node: 173.4581 deg Eccentricity: 0.0011973 Arg of perigee: 024.3740 deg Mean anomaly: 335.7824 deg Mean motion: 15.75689242 rev/day Decay rate: 1.54895e-03 rev/day^2 Epoch rev: 2603 Checksum: 317
Satellite: WeWish Catalog number: 38856 Epoch time: 13069.98095549 Element set: 248 Inclination: 051.6166 deg RA of node: 215.0521 deg Eccentricity: 0.0008325 Arg of perigee: 316.0438 deg Mean anomaly: 044.8765 deg Mean motion: 16.41348316 rev/day Decay rate: 1.6701328e-01 rev/day^2 Epoch rev: 2458 Checksum: 318
/EX
participants (1)
-
Ray Hoad